Content
SEND FEEDBACK

Daily
Averages
Monthly
Summary
United States of America

BARABOO, WISCONSIN


Home > North America > United States > Wisconsin
Elevation: 863 feet     Latitude: 43 28N     Longitude: 089 43W

WEATHER
 
SELECT A DAY
Number of Records: 438,919;   Date Range: 7/1/96 - 7/27/14
 
SHARE

PRINT THIS DATA

[ ← Previous Day ]
WEATHER ALMANAC - JANUARY 31, 2013
[ Next Day → ]
[ °C ]   °F
Weather ElementAverageHighLow
Temperature8 °F12.2 °F (12:35 am)-0.4 °F (10:15 pm)
Dewpoint0.8 °F8.6 °F (2:15 am)-7.6 °F (10:15 pm)
Humidity72.8 %85 % (2:15 am)62 % (9:55 am)
Barometer29.85 in30.13 in (11:55 pm)29.62 in (12:35 am)
Wind Speed10.3 mph17.3 mph (2:35 pm)
Wind Gust24.2 mph (5:35 pm)
Weather ElementAverage
Visibility7.8 mi
Wind DirectionWNW (294.3 °)

Weather ElementTotal
Precipitation---
Heating Degree Days59.1 (Base 65)
Averaged from 68 records on January 31, 2013
WEATHER CONDITIONS BREAKOUT
WIND DIRECTION BREAKOUT
WEATHER BY HOUR - JANUARY 31, 2013
[ °C ]   °F
Local TimeTemperatureDewpointHumidityBarometerVisibilityWind DirectionWind SpeedGust SpeedPrecipitationEventsConditions
12:35 AM12.2 °F6.8 °F79 %29.62 in10.0 miWNW (290°)12.7 mph17.3 mphOvercast
12:55 AM12.2 °F6.8 °F79 %29.63 in10.0 miWNW (290°)9.2 mphOvercast
1:15 AM12.2 °F6.8 °F79 %29.63 in10.0 miWest (280°)8.1 mphOvercast
1:35 AM12.2 °F6.8 °F79 %29.64 in10.0 miWest (280°)9.2 mphOvercast
1:55 AM12.2 °F6.8 °F79 %29.64 in10.0 miWest (280°)10.4 mphOvercast
2:15 AM12.2 °F8.6 °F85 %29.65 in2.5 miWNW (290°)10.4 mphSnowLight Snow
2:35 AM12.2 °F8.6 °F85 %29.65 in7.0 miNW (310°)5.8 mphSnowLight Snow
2:55 AM12.2 °F8.6 °F85 %29.65 in10.0 miNW (310°)4.6 mphOvercast
3:15 AM12.2 °F8.6 °F85 %29.66 in10.0 miNW (310°)3.5 mphOvercast
3:35 AM12.2 °F8.6 °F85 %29.66 in5.0 miNW (320°)3.5 mphSnowLight Snow
3:55 AM12.2 °F5.0 °F73 %29.66 in7.0 miWNW (290°)9.2 mph20.7 mphOvercast
4:15 AM12.2 °F6.8 °F79 %29.67 in4.0 miWest (280°)12.7 mph17.3 mphSnowLight Snow
4:35 AM12.2 °F5.0 °F73 %29.67 in4.0 miWNW (290°)11.5 mph16.1 mphHaze
4:55 AM10.4 °F5.0 °F79 %29.68 in7.0 miWNW (290°)9.2 mphOvercast
5:15 AM10.4 °F3.2 °F73 %29.68 in7.0 miWNW (290°)12.7 mph19.6 mphOvercast
5:35 AM10.4 °F3.2 °F73 %29.69 in10.0 miWNW (300°)10.4 mph19.6 mphMostly Cloudy
5:55 AM8.6 °F3.2 °F79 %29.70 in10.0 miWNW (290°)10.4 mphMostly Cloudy
6:15 AM8.6 °F3.2 °F79 %29.70 in10.0 miWNW (300°)6.9 mphMostly Cloudy
6:35 AM8.6 °F3.2 °F79 %29.72 in10.0 miWNW (290°)6.9 mphMostly Cloudy
6:55 AM10.4 °F3.2 °F73 %29.72 in10.0 miWNW (290°)8.1 mphOvercast
7:15 AM10.4 °F5.0 °F79 %29.73 in4.0 miWNW (290°)6.9 mphSnowLight Snow
7:55 AM10.4 °F5.0 °F79 %29.75 in0.8 miNW (320°)3.5 mphSnowLight Snow
8:15 AM10.4 °F3.2 °F73 %29.76 in10.0 miWNW (300°)8.1 mphOvercast
8:35 AM8.6 °F1.4 °F73 %29.77 in10.0 miNW (310°)5.8 mph11.5 mphMostly Cloudy
8:55 AM10.4 °F3.2 °F73 %29.77 in5.0 miNW (310°)11.5 mph16.1 mphHaze
9:15 AM10.4 °F1.4 °F67 %29.78 in5.0 miNW (310°)15.0 mph21.9 mphHaze
9:35 AM8.6 °F-0.4 °F67 %29.79 in10.0 miNW (310°)13.8 mph19.6 mphMostly Cloudy
9:55 AM10.4 °F-0.4 °F62 %29.79 in10.0 miWNW (290°)11.5 mph18.4 mphMostly Cloudy
10:15 AM10.4 °F-0.4 °F62 %29.81 in10.0 miWNW (300°)12.7 mph23.0 mphMostly Cloudy
10:55 AM8.6 °F-0.4 °F67 %29.82 in10.0 miWNW (290°)15.0 mphMostly Cloudy
11:15 AM10.4 °F-0.4 °F62 %29.83 in10.0 miWest (280°)13.8 mph21.9 mphOvercast
11:35 AM10.4 °F-0.4 °F62 %29.82 in7.0 miWest (280°)13.8 mph23.0 mphOvercast
11:55 AM10.4 °F1.4 °F67 %29.82 in10.0 miWNW (290°)15.0 mph23.0 mphOvercast
12:15 PM10.4 °F-0.4 °F62 %29.83 in7.0 miWNW (290°)15.0 mph23.0 mphOvercast
12:35 PM10.4 °F-0.4 °F62 %29.84 in10.0 miWNW (290°)15.0 mph18.4 mphOvercast
12:55 PM10.4 °F1.4 °F67 %29.84 in10.0 miWNW (300°)13.8 mph19.6 mphOvercast
1:15 PM10.4 °F-0.4 °F62 %29.84 in7.0 miWNW (300°)11.5 mph20.7 mphOvercast
1:35 PM10.4 °F1.4 °F67 %29.85 in7.0 miWNW (300°)13.8 mph18.4 mphOvercast
1:55 PM10.4 °F1.4 °F67 %29.86 in4.0 miWNW (290°)9.2 mphHaze
2:15 PM8.6 °F1.4 °F73 %29.87 in3.0 miWNW (290°)12.7 mph17.3 mphHaze
2:35 PM10.4 °F1.4 °F67 %29.87 in5.0 miWest (280°)17.3 mphHaze
2:55 PM10.4 °F-0.4 °F62 %29.88 in7.0 miWNW (300°)12.7 mph19.6 mphOvercast
3:15 PM8.6 °F1.4 °F73 %29.89 in2.5 miWNW (290°)12.7 mph16.1 mphSnowLight Snow
3:35 PM8.6 °F1.4 °F73 %29.90 in5.0 miWNW (300°)12.7 mph18.4 mphHaze
3:55 PM8.6 °F1.4 °F73 %29.91 in4.0 miWest (280°)13.8 mph21.9 mphHaze
4:15 PM8.6 °F1.4 °F73 %29.92 in4.0 miWNW (290°)13.8 mph18.4 mphHaze
4:35 PM8.6 °F1.4 °F73 %29.93 in5.0 miWNW (290°)12.7 mphHaze
4:55 PM8.6 °F1.4 °F73 %29.94 in1.8 miWNW (300°)6.9 mphSnowLight Snow
5:15 PM6.8 °F1.4 °F79 %29.95 in3.0 miNW (320°)5.8 mphSnowLight Snow
5:35 PM5.0 °F-2.2 °F72 %29.97 in5.0 miNW (310°)12.7 mph24.2 mphHaze
5:55 PM5.0 °F-2.2 °F72 %29.98 in7.0 miNW (310°)11.5 mph17.3 mphMostly Cloudy
6:15 PM5.0 °F-2.2 °F72 %29.99 in7.0 miNW (310°)10.4 mphMostly Cloudy
6:35 PM5.0 °F-2.2 °F72 %30.01 in10.0 miWNW (300°)10.4 mphOvercast
6:55 PM3.2 °F-2.2 °F78 %30.02 in10.0 miWNW (300°)9.2 mphOvercast
7:15 PM3.2 °F-4.0 °F72 %30.03 in10.0 miWNW (300°)15.0 mph18.4 mphScattered Clouds
7:35 PM3.2 °F-4.0 °F72 %30.04 in10.0 miWNW (300°)11.5 mph16.1 mphClear
7:55 PM3.2 °F-5.8 °F66 %30.04 in10.0 miWNW (300°)9.2 mph17.3 mphClear
8:15 PM1.4 °F-5.8 °F72 %30.05 in10.0 miWNW (290°)10.4 mphClear
8:35 PM1.4 °F-5.8 °F72 %30.06 in10.0 miWNW (290°)9.2 mph16.1 mphClear
8:55 PM1.4 °F-5.8 °F72 %30.07 in10.0 miWNW (300°)9.2 mphClear
9:15 PM1.4 °F-5.8 °F72 %30.08 in10.0 miWNW (290°)8.1 mphClear
9:35 PM1.4 °F-5.8 °F72 %30.09 in10.0 miWNW (290°)10.4 mphClear
10:15 PM-0.4 °F-7.6 °F72 %30.09 in10.0 miWNW (290°)9.2 mphClear
10:35 PM-0.4 °F-7.6 °F72 %30.10 in10.0 miWNW (290°)8.1 mphClear
10:55 PM-0.4 °F-7.6 °F72 %30.10 in10.0 miWest (280°)5.8 mphClear
11:15 PM-0.4 °F-7.6 °F72 %30.11 in10.0 miWest (270°)6.9 mphClear
11:35 PM-0.4 °F-7.6 °F72 %30.12 in10.0 miWest (270°)4.6 mphClear
11:55 PM-0.4 °F-7.6 °F72 %30.13 in10.0 miWest (260°)5.8 mphClear
Hourly data recorded from KDLL, located miles away from Baraboo, Wisconsin







STORIES FROM OUR PARTNERS